User: anonymous   Login
Location: Blue Mountain Vista Observatory
(40.6992°N, 75.9422°W)
Time: 23:27:29
(UTC-04:00)
Language:

CZ-4C R/B - Orbit

View from above orbital plane
View from above orbital plane
View from above satellite
View from above satellite

Ground track
Ground track

The orbit data is extracted from the following two-line orbital elements,

1 36416U 10009D   17086.49815907 -.00000049 +00000-0 +33131-4 0  9994
2 36416 063.4384 123.1679 0379118 356.5188 003.3223 13.69513405353027
Epoch (UTC): 27 March 2017 11:57:20
Eccentricity: 0.0379118
inclination: 63.4384°
perigee height: 721 km
apogee height: 1281 km
right ascension of ascending node: 123.1679°
argument of perigee: 356.5188°
revolutions per day: 13.69513405
mean anomaly at epoch: 3.3223°
orbit number at epoch: 35302

The dashed part of the orbit path shows where the satellite is in the earth's shadow,  

DLR